Year,Month,Day,Hour,Minute,Value (Times are PST for temperature in C)
2007,06,01,00,00,15.00
2007,06,01,00,01,15.00
2007,06,01,00,02,15.00
2007,06,01,00,03,15.00
2007,06,01,00,04,15.00
2007,06,01,00,05,15.00
2007,06,01,00,06,15.00
2007,06,01,00,07,15.00
2007,06,01,00,08,15.10
2007,06,01,00,09,15.10
2007,06,01,00,10,15.10
2007,06,01,00,11,15.20
2007,06,01,00,12,15.20
2007,06,01,01,02,14.70
2007,06,01,01,03,14.70
2007,06,01,01,04,14.70
2007,06,01,01,05,14.70
2007,06,01,01,06,14.60
2007,06,01,01,07,14.60
2007,06,01,01,08,14.60
2007,06,01,01,09,14.60
2007,06,01,01,10,14.50
2007,06,01,01,11,14.50
2007,06,01,01,12,14.50
2007,06,01,01,13,14.40
2007,06,01,01,14,14.40
2007,06,01,01,15,14.30
2007,06,01,01,16,14.30
2007,06,01,01,17,14.20
2007,06,01,01,18,14.20
2007,06,01,01,19,14.10
2007,06,01,01,20,14.00
2007,06,01,01,21,13.90
2007,06,01,01,22,13.90
2007,06,01,01,23,13.80
2007,06,01,01,24,13.80
2007,06,01,01,25,13.80
2007,06,01,01,26,13.80
2007,06,01,01,27,13.80
2007,06,01,01,28,13.70
2007,06,01,01,29,13.70
2007,06,01,01,30,13.70
2007,06,01,01,31,13.70
2007,06,01,01,32,13.70
2007,06,01,01,33,13.70
2007,06,01,01,34,13.60
2007,06,01,01,35,13.60
2007,06,01,01,36,13.60
2007,06,01,01,37,13.60
2007,06,01,01,38,13.60
2007,06,01,01,39,13.50
2007,06,01,01,40,13.40
2007,06,01,01,41,13.40
2007,06,01,01,42,13.40
2007,06,01,01,43,13.30
2007,06,01,01,44,13.20
2007,06,01,01,45,13.20
2007,06,01,01,46,13.10
2007,06,01,01,47,13.10
2007,06,01,01,48,13.00
2007,06,01,01,49,13.00
2007,06,01,01,50,13.00
2007,06,01,01,51,12.90
2007,06,01,01,52,12.90
2007,06,01,01,53,12.90
2007,06,01,01,54,12.80
2007,06,01,01,55,12.80
2007,06,01,01,56,12.80
2007,06,01,01,57,12.70
2007,06,01,01,58,12.70
2007,06,01,01,59,12.60
2007,06,01,02,00,12.60
2007,06,01,02,01,12.50
2007,06,01,02,02,12.50
2007,06,01,02,03,12.40
2007,06,01,02,04,12.40
2007,06,01,02,05,12.40
2007,06,01,02,06,12.40
2007,06,01,02,07,12.30
2007,06,01,02,08,12.30
2007,06,01,02,09,12.20
2007,06,01,02,10,12.20
2007,06,01,02,11,12.10
2007,06,01,02,12,12.10
2007,06,01,02,13,12.10
2007,06,01,02,14,12.00
2007,06,01,02,15,12.00
2007,06,01,02,16,11.90
2007,06,01,02,17,11.90
2007,06,01,02,18,11.90
2007,06,01,02,19,11.80
2007,06,01,02,20,11.80
2007,06,01,02,21,11.80
2007,06,01,02,22,11.70
2007,06,01,02,23,11.70
2007,06,01,02,24,11.70
2007,06,01,02,25,11.70
2007,06,01,02,26,11.70
2007,06,01,02,27,11.70
2007,06,01,02,28,11.70
2007,06,01,02,29,11.70
2007,06,01,02,30,11.70
2007,06,01,02,31,11.70
2007,06,01,02,32,11.60
2007,06,01,02,33,11.60
2007,06,01,02,34,11.60
2007,06,01,02,35,11.60
2007,06,01,02,36,11.60
2007,06,01,02,37,11.60
2007,06,01,02,38,11.60
2007,06,01,02,39,11.60
2007,06,01,02,40,11.60
2007,06,01,02,41,11.60
2007,06,01,02,42,11.60
2007,06,01,02,43,11.60
2007,06,01,02,44,11.60
2007,06,01,02,45,11.60
2007,06,01,02,46,11.60
2007,06,01,02,47,11.60
2007,06,01,02,48,11.60
2007,06,01,02,49,11.60
2007,06,01,02,50,11.60
2007,06,01,02,51,11.60
2007,06,01,02,52,11.60
2007,06,01,02,53,11.60
2007,06,01,02,54,11.50
2007,06,01,02,55,11.50
2007,06,01,02,56,11.60
2007,06,01,02,57,11.60
2007,06,01,02,58,11.60
2007,06,01,02,59,11.60
2007,06,01,03,00,11.60
2007,06,01,03,01,11.60
2007,06,01,03,02,11.60
2007,06,01,03,03,11.60
2007,06,01,03,04,11.60
2007,06,01,03,05,11.60
2007,06,01,03,06,11.60
2007,06,01,03,07,11.60
2007,06,01,03,08,11.60
2007,06,01,03,09,11.60
2007,06,01,03,10,11.60
2007,06,01,03,11,11.60
2007,06,01,03,12,11.60
2007,06,01,03,13,11.50
2007,06,01,03,14,11.50
2007,06,01,03,15,11.50
2007,06,01,03,16,11.50
2007,06,01,03,17,11.50
2007,06,01,03,18,11.40
2007,06,01,03,19,11.40
2007,06,01,03,20,11.40
2007,06,01,03,21,11.40
2007,06,01,03,22,11.40
2007,06,01,03,23,11.40
2007,06,01,03,24,11.40
2007,06,01,03,25,11.40
2007,06,01,03,26,11.40
2007,06,01,03,27,11.40
2007,06,01,03,28,11.40
2007,06,01,03,29,11.40
2007,06,01,03,30,11.40
2007,06,01,03,31,11.40
2007,06,01,03,32,11.40
2007,06,01,03,33,11.40
2007,06,01,03,34,11.30
2007,06,01,03,35,11.30
2007,06,01,03,36,11.30
2007,06,01,03,37,11.30
2007,06,01,03,38,11.30
2007,06,01,03,39,11.30
2007,06,01,03,40,11.30
2007,06,01,03,41,11.30
2007,06,01,03,42,11.30
2007,06,01,03,43,11.30
2007,06,01,03,44,11.30
2007,06,01,03,45,11.30
2007,06,01,03,46,11.30
2007,06,01,03,47,11.20
2007,06,01,03,48,11.20
2007,06,01,03,49,11.20
2007,06,01,03,50,11.20
2007,06,01,03,51,11.20
2007,06,01,03,52,11.20
2007,06,01,03,53,11.20
2007,06,01,03,54,11.20
2007,06,01,03,55,11.20
2007,06,01,03,56,11.20
2007,06,01,03,57,11.10
2007,06,01,03,58,11.10
2007,06,01,03,59,11.10
2007,06,01,04,00,11.10
2007,06,01,04,01,11.10
2007,06,01,04,02,11.10
2007,06,01,04,03,11.10
2007,06,01,04,04,11.10
2007,06,01,04,05,11.10
2007,06,01,04,06,11.10
2007,06,01,04,07,11.00
2007,06,01,04,08,11.00
2007,06,01,04,09,11.00
2007,06,01,04,10,11.00
2007,06,01,04,11,11.00
2007,06,01,04,12,11.00
2007,06,01,04,13,11.00
2007,06,01,04,14,11.00
2007,06,01,04,15,10.90
2007,06,01,04,16,10.90
2007,06,01,04,17,10.90
2007,06,01,04,18,10.90
2007,06,01,04,19,10.90
2007,06,01,04,20,10.90
2007,06,01,04,21,10.90
2007,06,01,04,22,10.90
2007,06,01,04,23,10.90
2007,06,01,04,24,10.80
2007,06,01,04,25,10.80
2007,06,01,04,26,10.80
2007,06,01,04,27,10.80
2007,06,01,04,28,10.80
2007,06,01,04,29,10.80
2007,06,01,04,30,10.80
2007,06,01,04,31,10.80
2007,06,01,04,32,10.80
2007,06,01,04,33,10.80
2007,06,01,04,34,10.80
2007,06,01,04,35,10.70
2007,06,01,04,36,10.70
2007,06,01,04,37,10.70
2007,06,01,04,38,10.70
2007,06,01,04,39,10.70
2007,06,01,04,40,10.70
2007,06,01,04,41,10.70
2007,06,01,04,42,10.70
2007,06,01,04,43,10.70
2007,06,01,04,44,10.60
2007,06,01,04,45,10.60
2007,06,01,04,46,10.60
2007,06,01,04,47,10.60
2007,06,01,04,48,10.60
2007,06,01,04,49,10.60
2007,06,01,04,50,10.60
2007,06,01,04,51,10.60
2007,06,01,04,52,10.60
2007,06,01,04,53,10.60
2007,06,01,04,54,10.50
2007,06,01,04,55,10.50
2007,06,01,04,56,10.50
2007,06,01,04,57,10.40
2007,06,01,04,58,10.40
2007,06,01,04,59,10.40
2007,06,01,05,00,10.40
2007,06,01,05,01,10.40
2007,06,01,05,02,10.40
2007,06,01,05,03,10.30
2007,06,01,05,04,10.30
2007,06,01,05,05,10.30
2007,06,01,05,06,10.30
2007,06,01,05,07,10.30
2007,06,01,05,08,10.30
2007,06,01,05,09,10.30
2007,06,01,05,10,10.30
2007,06,01,05,11,10.30
2007,06,01,05,12,10.30
2007,06,01,05,13,10.30
2007,06,01,05,14,10.30
2007,06,01,05,15,10.30
2007,06,01,05,16,10.30
2007,06,01,05,17,10.30
2007,06,01,05,18,10.20
2007,06,01,05,19,10.20
2007,06,01,05,20,10.20
2007,06,01,05,21,10.20
2007,06,01,05,22,10.20
2007,06,01,05,23,10.20
2007,06,01,05,24,10.20
2007,06,01,05,25,10.20
2007,06,01,05,26,10.20
2007,06,01,05,27,10.20
2007,06,01,05,28,10.20
2007,06,01,05,29,10.20
2007,06,01,05,30,10.20
2007,06,01,05,31,10.10
2007,06,01,05,32,10.10
2007,06,01,05,33,10.10
2007,06,01,05,34,10.10
2007,06,01,05,35,10.10
2007,06,01,05,36,10.10
2007,06,01,05,37,10.10
2007,06,01,05,38,10.10
2007,06,01,05,39,10.10
2007,06,01,05,40,10.10
2007,06,01,05,41,10.10
2007,06,01,05,42,10.10
2007,06,01,05,43,10.10
2007,06,01,05,44,10.10
2007,06,01,05,45,10.10
2007,06,01,05,46,10.10
2007,06,01,05,47,10.10
2007,06,01,05,48,10.10
2007,06,01,05,49,10.10
2007,06,01,05,50,10.10
2007,06,01,05,51,10.10
2007,06,01,05,52,10.10
2007,06,01,05,53,10.10
2007,06,01,05,54,10.10
2007,06,01,05,55,10.10
2007,06,01,05,56,10.10
2007,06,01,05,57,10.10
2007,06,01,05,58,10.10
2007,06,01,05,59,10.10
2007,06,01,06,00,10.10
2007,06,01,06,01,10.10
2007,06,01,06,02,10.20
2007,06,01,06,03,10.20
2007,06,01,06,04,10.20
2007,06,01,06,05,10.20
2007,06,01,06,06,10.20
2007,06,01,06,07,10.20
2007,06,01,06,08,10.20
2007,06,01,06,09,10.20
2007,06,01,06,10,10.20
2007,06,01,06,11,10.30
2007,06,01,06,12,10.30
2007,06,01,06,13,10.30
2007,06,01,06,14,10.30
2007,06,01,06,15,10.30
2007,06,01,06,16,10.30
2007,06,01,06,17,10.30
2007,06,01,06,18,10.40
2007,06,01,06,19,10.40
2007,06,01,06,20,10.40
2007,06,01,06,21,10.50
2007,06,01,06,22,10.50
2007,06,01,06,23,10.50
2007,06,01,06,24,10.60
2007,06,01,06,25,10.60
2007,06,01,06,26,10.60
2007,06,01,06,27,10.70
2007,06,01,06,28,10.70
2007,06,01,06,29,10.70
2007,06,01,06,30,10.80
2007,06,01,06,31,10.80
2007,06,01,06,32,10.80
2007,06,01,06,33,10.80
2007,06,01,06,34,10.90
2007,06,01,06,35,10.90
2007,06,01,06,36,10.90
2007,06,01,06,37,11.00
2007,06,01,06,38,11.00
2007,06,01,06,39,11.00
2007,06,01,06,40,11.10
2007,06,01,06,41,11.10
2007,06,01,06,42,11.10
2007,06,01,06,43,11.10
2007,06,01,06,44,11.20
2007,06,01,06,45,11.20
2007,06,01,06,46,11.20
2007,06,01,06,47,11.20
2007,06,01,06,48,11.30
2007,06,01,06,49,11.30
2007,06,01,06,50,11.30
2007,06,01,06,51,11.40
2007,06,01,06,52,11.40
2007,06,01,06,53,11.40
2007,06,01,06,54,11.50
2007,06,01,06,55,11.50
2007,06,01,06,56,11.60
2007,06,01,06,57,11.60
2007,06,01,06,58,11.60
2007,06,01,06,59,11.70
2007,06,01,07,00,11.70
2007,06,01,07,01,11.70
2007,06,01,07,02,11.80
2007,06,01,07,03,11.80
2007,06,01,07,04,11.80
2007,06,01,07,05,11.90
2007,06,01,07,06,12.00
2007,06,01,07,07,12.10
2007,06,01,07,08,12.20
2007,06,01,07,09,12.20
2007,06,01,07,10,12.30
2007,06,01,07,11,12.40
2007,06,01,07,12,12.40
2007,06,01,07,13,12.50
2007,06,01,07,14,12.60
2007,06,01,07,15,12.60
2007,06,01,07,16,12.70
2007,06,01,07,17,12.70
2007,06,01,07,18,12.80
2007,06,01,07,19,12.80
2007,06,01,07,20,12.80
2007,06,01,07,21,12.90
2007,06,01,07,22,12.90
2007,06,01,07,23,13.00
2007,06,01,07,24,13.10
2007,06,01,07,25,13.10
2007,06,01,07,26,13.20
2007,06,01,07,27,13.20
2007,06,01,07,28,13.30
2007,06,01,07,29,13.30
2007,06,01,07,30,13.30
2007,06,01,07,31,13.40
2007,06,01,07,32,13.40
2007,06,01,07,33,13.40
2007,06,01,07,34,13.50
2007,06,01,07,35,13.50
2007,06,01,07,36,13.60
2007,06,01,07,37,13.60
2007,06,01,07,38,13.60
2007,06,01,07,39,13.60
2007,06,01,07,40,13.60
2007,06,01,07,41,13.70
2007,06,01,07,42,13.70
2007,06,01,07,43,13.80
2007,06,01,07,44,13.80
2007,06,01,07,45,13.90
2007,06,01,07,46,14.00
2007,06,01,07,47,14.10
2007,06,01,07,48,14.20
2007,06,01,07,49,14.30
2007,06,01,07,50,14.40
2007,06,01,07,51,14.50
2007,06,01,07,52,14.60
2007,06,01,07,53,14.60
2007,06,01,07,54,14.70
2007,06,01,07,55,14.70
2007,06,01,07,56,14.70
2007,06,01,07,57,14.80
2007,06,01,07,58,14.80
2007,06,01,07,59,14.90
2007,06,01,08,00,14.90
2007,06,01,08,01,15.00
2007,06,01,08,02,15.00
2007,06,01,08,03,15.00
2007,06,01,08,04,15.00
2007,06,01,08,05,15.00
2007,06,01,08,06,15.00
2007,06,01,08,07,15.00
2007,06,01,08,08,15.00
2007,06,01,08,09,15.00
2007,06,01,08,10,15.00
2007,06,01,08,11,15.00
2007,06,01,08,12,15.10
2007,06,01,08,13,15.30
2007,06,01,08,14,15.40
2007,06,01,08,15,15.50
2007,06,01,08,16,15.60
2007,06,01,08,17,15.70
2007,06,01,08,18,15.70
2007,06,01,08,19,15.80
2007,06,01,08,20,15.90
2007,06,01,08,21,16.00
2007,06,01,08,22,16.00
2007,06,01,08,23,16.10
2007,06,01,08,24,16.20
2007,06,01,08,25,16.20
2007,06,01,08,26,16.30
2007,06,01,08,27,16.40
2007,06,01,08,28,16.40
2007,06,01,08,29,16.40
2007,06,01,08,30,16.40
2007,06,01,08,31,16.40
2007,06,01,08,32,16.40
2007,06,01,08,33,16.40
2007,06,01,08,34,16.40
2007,06,01,08,35,16.40
2007,06,01,08,36,16.40
2007,06,01,08,37,16.30
2007,06,01,08,38,16.30
2007,06,01,08,39,16.30
2007,06,01,08,40,16.30
2007,06,01,08,41,16.30
2007,06,01,08,42,16.30
2007,06,01,08,43,16.20
2007,06,01,08,44,16.20
2007,06,01,08,45,16.30
2007,06,01,08,46,16.30
2007,06,01,08,47,16.30
2007,06,01,08,48,16.40
2007,06,01,08,49,16.40
2007,06,01,08,50,16.50
2007,06,01,08,51,16.50
2007,06,01,08,52,16.60
2007,06,01,08,53,16.60
2007,06,01,08,54,16.60
2007,06,01,08,55,16.60
2007,06,01,08,56,16.70
2007,06,01,08,57,16.70
2007,06,01,08,58,16.70
2007,06,01,08,59,16.80
2007,06,01,09,00,16.80
2007,06,01,09,01,16.90
2007,06,01,09,02,17.00
2007,06,01,09,03,17.10
2007,06,01,09,04,17.10
2007,06,01,09,05,17.20
2007,06,01,09,06,17.20
2007,06,01,09,07,17.20
2007,06,01,09,08,17.30
2007,06,01,09,09,17.30
2007,06,01,09,10,17.30
2007,06,01,09,11,17.30
2007,06,01,09,12,17.30
2007,06,01,09,13,17.20
2007,06,01,09,14,17.20
2007,06,01,09,15,17.20
2007,06,01,09,16,17.20
2007,06,01,09,17,17.20
2007,06,01,09,18,17.20
2007,06,01,09,19,17.20
2007,06,01,09,20,17.20
2007,06,01,09,21,17.20
2007,06,01,09,22,17.10
2007,06,01,09,23,17.10
2007,06,01,09,24,17.10
2007,06,01,09,25,17.10
2007,06,01,09,26,17.10
2007,06,01,09,27,17.20
2007,06,01,09,28,17.20
2007,06,01,09,29,17.30
2007,06,01,09,30,17.30
2007,06,01,09,31,17.30
2007,06,01,09,32,17.40
2007,06,01,09,33,17.40
2007,06,01,09,34,17.40
2007,06,01,09,35,17.40
2007,06,01,09,36,17.40
2007,06,01,09,37,17.50
2007,06,01,09,38,17.50
2007,06,01,09,39,17.60
2007,06,01,09,40,17.60
2007,06,01,09,41,17.60
2007,06,01,09,42,17.60
2007,06,01,09,43,17.60
2007,06,01,09,44,17.70
2007,06,01,09,45,17.70
2007,06,01,09,46,17.70
2007,06,01,09,47,17.70
2007,06,01,09,48,17.70
2007,06,01,09,49,17.70
2007,06,01,09,50,17.70
2007,06,01,09,51,17.70
2007,06,01,09,52,17.70
2007,06,01,09,53,17.80
2007,06,01,09,54,17.80
2007,06,01,09,55,17.90
2007,06,01,09,56,17.90
2007,06,01,09,57,18.00
2007,06,01,09,58,18.00
2007,06,01,09,59,18.20
2007,06,01,10,00,18.20
2007,06,01,10,01,18.30
2007,06,01,10,02,18.40
2007,06,01,10,03,18.40
2007,06,01,10,04,18.40
2007,06,01,10,05,18.50
2007,06,01,10,06,18.50
2007,06,01,10,07,18.50
2007,06,01,10,08,18.50
2007,06,01,10,09,18.60
2007,06,01,10,10,18.70
2007,06,01,10,11,18.80
2007,06,01,10,12,18.80
2007,06,01,10,13,18.80
2007,06,01,10,14,18.80
2007,06,01,10,15,18.80
2007,06,01,10,16,18.90
2007,06,01,10,17,18.90
2007,06,01,10,18,18.80
2007,06,01,10,19,18.80
2007,06,01,10,20,18.80
2007,06,01,10,21,18.80
2007,06,01,10,22,18.70
2007,06,01,10,23,18.50
2007,06,01,10,24,18.40
2007,06,01,10,25,18.30
2007,06,01,10,26,18.20
2007,06,01,10,27,18.10
2007,06,01,10,28,18.10
2007,06,01,10,29,18.20
2007,06,01,10,30,18.30
2007,06,01,10,31,18.30
2007,06,01,10,32,18.30
2007,06,01,10,33,18.30
2007,06,01,10,34,18.30
2007,06,01,10,35,18.30
2007,06,01,10,36,18.20
2007,06,01,10,37,18.20
2007,06,01,10,38,18.10
2007,06,01,10,39,18.10
2007,06,01,10,40,18.00
2007,06,01,10,41,17.90
2007,06,01,10,42,17.80
2007,06,01,10,43,17.80
2007,06,01,10,44,17.80
2007,06,01,10,45,17.90
2007,06,01,10,46,18.00
2007,06,01,10,47,18.00
2007,06,01,10,48,18.10
2007,06,01,10,49,18.00
2007,06,01,10,50,18.00
2007,06,01,10,51,18.00
2007,06,01,10,52,18.00
2007,06,01,10,53,18.00
2007,06,01,10,54,17.90
2007,06,01,10,55,18.00
2007,06,01,10,56,18.10
2007,06,01,10,57,18.10
2007,06,01,10,58,18.20
2007,06,01,10,59,18.30
2007,06,01,11,00,18.40
2007,06,01,11,01,18.40
2007,06,01,11,02,18.50
2007,06,01,11,03,18.60
2007,06,01,11,04,18.60
2007,06,01,11,05,18.60
2007,06,01,11,06,18.60
2007,06,01,11,07,18.70
2007,06,01,11,08,18.70
2007,06,01,11,09,18.90
2007,06,01,11,10,19.00
2007,06,01,11,11,19.10
2007,06,01,11,12,19.10
2007,06,01,11,13,19.20
2007,06,01,11,14,19.30
2007,06,01,11,15,19.30
2007,06,01,11,16,19.30
2007,06,01,11,17,19.30
2007,06,01,11,18,19.30
2007,06,01,11,19,19.30
2007,06,01,11,20,19.30
2007,06,01,11,21,19.30
2007,06,01,11,22,19.40
2007,06,01,11,23,19.40
2007,06,01,11,24,19.30
2007,06,01,11,25,19.30
2007,06,01,11,26,19.30
2007,06,01,11,27,19.30
2007,06,01,11,28,19.30
2007,06,01,11,29,19.30
2007,06,01,11,30,19.20
2007,06,01,11,31,19.20
2007,06,01,11,32,19.20
2007,06,01,11,33,19.20
2007,06,01,11,34,19.20
2007,06,01,11,35,19.20
2007,06,01,11,36,19.30
2007,06,01,11,37,19.40
2007,06,01,11,38,19.40
2007,06,01,11,39,19.40
2007,06,01,11,40,19.40
2007,06,01,11,41,19.30
2007,06,01,11,42,19.30
2007,06,01,11,43,19.30
2007,06,01,11,44,19.30
2007,06,01,11,45,19.30
2007,06,01,11,46,19.30
2007,06,01,11,47,19.30
2007,06,01,11,48,19.20
2007,06,01,11,49,19.20
2007,06,01,11,50,19.20
2007,06,01,11,51,19.30
2007,06,01,11,52,19.30
2007,06,01,11,53,19.30
2007,06,01,11,54,19.30
2007,06,01,11,55,19.20
2007,06,01,11,56,19.10
2007,06,01,11,57,18.90
2007,06,01,11,58,18.90
2007,06,01,11,59,18.90
2007,06,01,12,00,18.90
2007,06,01,12,01,19.10
2007,06,01,12,02,19.20
2007,06,01,12,03,19.20
2007,06,01,12,04,19.30
2007,06,01,12,05,19.20
2007,06,01,12,06,19.20
2007,06,01,12,07,19.20
2007,06,01,12,08,19.20
2007,06,01,12,09,19.20
2007,06,01,12,10,19.20
2007,06,01,12,11,19.20
2007,06,01,12,12,19.30
2007,06,01,12,13,19.30
2007,06,01,12,14,19.40
2007,06,01,12,15,19.50
2007,06,01,12,16,19.50
2007,06,01,12,17,19.60
2007,06,01,12,18,19.70
2007,06,01,12,19,19.80
2007,06,01,12,20,19.90
2007,06,01,12,21,19.90
2007,06,01,12,22,20.00
2007,06,01,12,23,20.00
2007,06,01,12,24,20.10
2007,06,01,12,25,20.20
2007,06,01,12,26,20.20
2007,06,01,12,27,20.30
2007,06,01,12,28,20.20
2007,06,01,12,29,20.20
2007,06,01,12,30,20.30
2007,06,01,12,31,20.20
2007,06,01,12,32,20.10
2007,06,01,12,33,20.10
2007,06,01,12,34,20.10
2007,06,01,12,35,20.00
2007,06,01,12,36,19.80
2007,06,01,12,37,19.80
2007,06,01,12,38,19.80
2007,06,01,12,39,19.70
2007,06,01,12,40,19.50
2007,06,01,12,41,19.40
2007,06,01,12,42,19.40
2007,06,01,12,43,19.40
2007,06,01,12,44,19.30
2007,06,01,12,45,19.20
2007,06,01,12,46,19.00
2007,06,01,12,47,18.90
2007,06,01,12,48,18.80
2007,06,01,12,49,18.80
2007,06,01,12,50,18.70
2007,06,01,12,51,18.70
2007,06,01,12,52,18.80
2007,06,01,12,53,18.90
2007,06,01,12,54,18.90
2007,06,01,12,55,19.10
2007,06,01,12,56,19.20
2007,06,01,12,57,19.40
2007,06,01,12,58,19.50
2007,06,01,12,59,19.70
2007,06,01,13,00,19.80
2007,06,01,13,01,19.80
2007,06,01,13,02,19.90
2007,06,01,13,03,20.00
2007,06,01,13,04,20.10
2007,06,01,13,05,20.20
2007,06,01,13,06,20.20
2007,06,01,13,07,20.00
2007,06,01,13,08,19.90
2007,06,01,13,09,19.80
2007,06,01,13,10,19.80
2007,06,01,13,11,19.80
2007,06,01,13,12,19.90
2007,06,01,13,13,20.00
2007,06,01,13,14,20.00
2007,06,01,13,15,20.00
2007,06,01,13,16,20.00
2007,06,01,13,17,20.00
2007,06,01,13,18,20.10
2007,06,01,13,19,20.20
2007,06,01,13,20,20.30
2007,06,01,13,21,20.30
2007,06,01,13,22,20.30
2007,06,01,13,23,20.30
2007,06,01,13,24,20.20
2007,06,01,13,25,20.10
2007,06,01,13,26,20.00
2007,06,01,13,27,19.90
2007,06,01,13,28,20.00
2007,06,01,13,29,20.10
2007,06,01,13,30,20.10
2007,06,01,13,31,20.30
2007,06,01,13,32,20.30
2007,06,01,13,33,20.30
2007,06,01,13,34,20.30
2007,06,01,13,35,20.20
2007,06,01,13,36,20.30
2007,06,01,13,37,20.20
2007,06,01,13,38,20.20
2007,06,01,13,39,20.20
2007,06,01,13,40,20.20
2007,06,01,13,41,20.20
2007,06,01,13,42,20.10
2007,06,01,13,43,20.10
2007,06,01,13,44,20.10
2007,06,01,13,45,20.10
2007,06,01,13,46,20.10
2007,06,01,13,47,20.00
2007,06,01,13,48,20.00
2007,06,01,13,49,19.90
2007,06,01,13,50,20.00
2007,06,01,13,51,19.90
2007,06,01,13,52,19.90
2007,06,01,13,53,19.90
2007,06,01,13,54,20.00
2007,06,01,13,55,20.10
2007,06,01,13,56,20.20
2007,06,01,13,57,20.30
2007,06,01,13,58,20.20
2007,06,01,13,59,20.20
2007,06,01,14,00,20.20
2007,06,01,14,01,20.30
2007,06,01,14,02,20.40
2007,06,01,14,03,20.40
2007,06,01,14,04,20.40
2007,06,01,14,05,20.40
2007,06,01,14,06,20.30
2007,06,01,14,07,20.30
2007,06,01,14,08,20.40
2007,06,01,14,09,20.40
2007,06,01,14,10,20.40
2007,06,01,14,11,20.40
2007,06,01,14,12,20.40
2007,06,01,14,13,20.50
2007,06,01,14,14,20.60
2007,06,01,14,15,20.70
2007,06,01,14,16,20.80
2007,06,01,14,17,20.80
2007,06,01,14,18,20.90
2007,06,01,14,19,20.90
2007,06,01,14,20,20.90
2007,06,01,14,21,20.90
2007,06,01,14,22,21.00
2007,06,01,14,23,21.00
2007,06,01,14,24,21.10
2007,06,01,14,25,21.10
2007,06,01,14,26,21.10
2007,06,01,14,27,21.10
2007,06,01,14,28,21.10
2007,06,01,14,29,21.20
2007,06,01,14,30,21.20
2007,06,01,14,31,21.30
2007,06,01,14,32,21.30
2007,06,01,14,33,21.40
2007,06,01,14,34,21.50
2007,06,01,14,35,21.50
2007,06,01,14,36,21.60
2007,06,01,14,37,21.70
2007,06,01,14,38,21.80
2007,06,01,14,39,21.70
2007,06,01,14,40,21.70
2007,06,01,14,41,21.80
2007,06,01,14,42,21.80
2007,06,01,14,43,21.80
2007,06,01,14,44,21.90
2007,06,01,14,45,22.00
2007,06,01,14,46,22.10
2007,06,01,14,47,22.10
2007,06,01,14,48,22.10
2007,06,01,14,49,22.00
2007,06,01,14,50,22.00
2007,06,01,14,51,22.10
2007,06,01,14,52,22.20
2007,06,01,14,53,22.10
2007,06,01,14,54,22.10
2007,06,01,14,55,22.20
2007,06,01,14,56,22.30
2007,06,01,14,57,22.40
2007,06,01,14,58,22.50
2007,06,01,14,59,22.60
2007,06,01,15,00,22.70
2007,06,01,15,01,22.80
2007,06,01,15,02,22.90
2007,06,01,15,03,23.00
2007,06,01,15,04,23.10
2007,06,01,15,05,23.20
2007,06,01,15,06,23.30
2007,06,01,15,07,23.40
2007,06,01,15,08,23.50
2007,06,01,15,09,23.60
2007,06,01,15,10,23.80
2007,06,01,15,11,23.90
2007,06,01,15,12,24.00
2007,06,01,15,13,24.10
2007,06,01,15,14,24.20
2007,06,01,15,15,24.30
2007,06,01,15,16,24.30
2007,06,01,15,17,24.30
2007,06,01,15,18,24.30
2007,06,01,15,19,24.40
2007,06,01,15,20,24.40
2007,06,01,15,21,24.40
2007,06,01,15,22,24.40
2007,06,01,15,23,24.40
2007,06,01,15,24,24.30
2007,06,01,15,25,24.30
2007,06,01,15,26,24.30
2007,06,01,15,27,24.20
2007,06,01,15,28,24.10
2007,06,01,15,29,24.10
2007,06,01,15,30,24.00
2007,06,01,15,31,23.90
2007,06,01,15,32,23.90
2007,06,01,15,33,23.90
2007,06,01,15,34,23.90
2007,06,01,15,35,23.90
2007,06,01,15,36,24.00
2007,06,01,15,37,24.00
2007,06,01,15,38,23.90
2007,06,01,15,39,23.90
2007,06,01,15,40,23.90
2007,06,01,15,41,23.90
2007,06,01,15,42,24.00
2007,06,01,15,43,24.10
2007,06,01,15,44,24.10
2007,06,01,15,45,24.20
2007,06,01,15,46,24.40
2007,06,01,15,47,24.50
2007,06,01,15,48,24.50
2007,06,01,15,49,24.50
2007,06,01,15,50,24.50
2007,06,01,15,51,24.50
2007,06,01,15,52,24.30
2007,06,01,15,53,24.10
2007,06,01,15,54,24.00
2007,06,01,15,55,23.90
2007,06,01,15,56,23.90
2007,06,01,15,57,23.90
2007,06,01,15,58,23.80
2007,06,01,15,59,23.80
2007,06,01,16,00,23.80
2007,06,01,16,01,23.80
2007,06,01,16,02,23.80
2007,06,01,16,03,23.90
2007,06,01,16,04,24.00
2007,06,01,16,05,24.10
2007,06,01,16,06,24.30
2007,06,01,16,07,24.30
2007,06,01,16,08,24.30
2007,06,01,16,09,24.30
2007,06,01,16,10,24.30
2007,06,01,16,11,24.30
2007,06,01,16,12,24.20
2007,06,01,16,13,24.10
2007,06,01,16,14,24.00
2007,06,01,16,15,23.90
2007,06,01,16,16,23.90
2007,06,01,16,17,23.80
2007,06,01,16,18,23.80
2007,06,01,16,19,23.80
2007,06,01,16,20,23.80
2007,06,01,16,21,23.90
2007,06,01,16,22,24.00
2007,06,01,16,23,24.10
2007,06,01,16,24,24.10
2007,06,01,16,25,24.00
2007,06,01,16,26,24.00
2007,06,01,16,27,24.10
2007,06,01,16,28,24.20
2007,06,01,16,29,24.20
2007,06,01,16,30,24.20
2007,06,01,16,31,24.30
2007,06,01,16,32,24.20
2007,06,01,16,33,24.20
2007,06,01,16,34,24.30
2007,06,01,16,35,24.30
2007,06,01,16,36,24.30
2007,06,01,16,37,24.30
2007,06,01,16,38,24.40
2007,06,01,16,39,24.50
2007,06,01,16,40,24.60
2007,06,01,16,41,24.70
2007,06,01,16,42,24.80
2007,06,01,16,43,24.70
2007,06,01,16,44,24.70
2007,06,01,16,45,24.70
2007,06,01,16,46,24.70
2007,06,01,16,47,24.70
2007,06,01,16,48,24.70
2007,06,01,16,49,24.70
2007,06,01,16,50,24.60
2007,06,01,16,51,24.60
2007,06,01,16,52,24.60
2007,06,01,16,53,24.60
2007,06,01,16,54,24.70
2007,06,01,16,55,24.70
2007,06,01,16,56,24.70
2007,06,01,16,57,24.70
2007,06,01,16,58,24.80
2007,06,01,16,59,24.90
2007,06,01,17,00,25.00
2007,06,01,17,01,25.20
2007,06,01,17,02,25.30
2007,06,01,17,03,25.40
2007,06,01,17,04,25.40
2007,06,01,17,05,25.50
2007,06,01,17,06,25.40
2007,06,01,17,07,25.30
2007,06,01,17,08,25.20
2007,06,01,17,09,25.00
2007,06,01,17,10,24.90
2007,06,01,17,11,24.80
2007,06,01,17,12,24.80
2007,06,01,17,13,24.70
2007,06,01,17,14,24.60
2007,06,01,17,15,24.50
2007,06,01,17,16,24.40
2007,06,01,17,17,24.30
2007,06,01,17,18,24.20
2007,06,01,17,19,24.20
2007,06,01,17,20,24.20
2007,06,01,17,21,24.20
2007,06,01,17,22,24.30
2007,06,01,17,23,24.30
2007,06,01,17,24,24.40
2007,06,01,17,25,24.40
2007,06,01,17,26,24.50
2007,06,01,17,27,24.50
2007,06,01,17,28,24.40
2007,06,01,17,29,24.50
2007,06,01,17,30,24.60
2007,06,01,17,31,24.60
2007,06,01,17,32,24.70
2007,06,01,17,33,24.70
2007,06,01,17,34,24.70
2007,06,01,17,35,24.80
2007,06,01,17,36,24.80
2007,06,01,17,37,24.80
2007,06,01,17,38,24.80
2007,06,01,17,39,24.80
2007,06,01,17,40,24.80
2007,06,01,17,41,24.80
2007,06,01,17,42,24.70
2007,06,01,17,43,24.60
2007,06,01,17,44,24.50
2007,06,01,17,45,24.40
2007,06,01,17,46,24.40
2007,06,01,17,47,24.30
2007,06,01,17,48,24.20
2007,06,01,17,49,24.20
2007,06,01,17,50,24.20
2007,06,01,17,51,24.20
2007,06,01,17,52,24.20
2007,06,01,17,53,24.20
2007,06,01,17,54,24.20
2007,06,01,17,55,24.30
2007,06,01,17,56,24.30
2007,06,01,17,57,24.20
2007,06,01,17,58,24.20
2007,06,01,17,59,24.20
2007,06,01,18,00,24.20
2007,06,01,18,01,24.10
2007,06,01,18,02,24.20
2007,06,01,18,03,24.10
2007,06,01,18,04,24.10
2007,06,01,18,05,24.10
2007,06,01,18,06,24.10
2007,06,01,18,07,24.20
2007,06,01,18,08,24.20